AP893 Weather Reports


time (UTC)temp
C
wind
direction
speed
KPH
gust
KPH
rain 1hr
cm
rain 24hr
cm
rain mn
cm
humidity
%
barometer
mb
20260503010010 22 8 8.0 12.9 0.00 0.00 0.00 51 1014.0
20260503005009 23 305 3.2 8.0 0.00 0.00 0.00 48 1014.0
20260503003009 24 27 0.0 9.7 0.00 0.00 0.00 42 1014.0
20260503002009 25 107 0.0 4.8 0.00 0.00 0.00 42 1014.1
20260503001010 25 107 0.0 4.8 0.00 0.00 0.00 40 1014.2
20260503000009 25 107 0.0 9.7 0.00 0.00 0.00 39 1014.2
20260502235010 25 319 0.0 4.8 0.00 0.00 0.00 42 1014.4
20260502234009 25 271 1.6 9.7 0.00 0.00 0.00 44 1014.5
20260502232010 26 88 0.0 11.3 0.00 0.00 0.00 41 1014.5
20260502231010 26 0 1.6 12.9 0.00 0.00 0.00 41 1014.7
20260502230010 26 73 1.6 11.3 0.00 0.00 0.00 40 1014.8
20260502225010 26 158 0.0 11.3 0.00 0.00 0.00 39 1014.9
20260502223009 26 158 8.0 16.1 0.00 0.00 0.00 38 1015.0
20260502222010 26 275 1.6 11.3 0.00 0.00 0.00 38 1015.1
20260502221009 26 164 0.0 8.0 0.00 0.00 0.00 36 1015.2
20260502220010 26 337 3.2 11.3 0.00 0.00 0.00 36 1015.3
20260502215010 27 222 6.4 14.5 0.00 0.00 0.00 36 1015.5
20260502214009 27 129 3.2 12.9 0.00 0.00 0.00 36 1015.6
20260502213010 27 294 4.8 14.5 0.00 0.00 0.00 35 1015.7
20260502212010 26 92 6.4 14.5 0.00 0.00 0.00 36 1015.7
20260502211009 27 300 4.8 12.9 0.00 0.00 0.00 35 1015.8
20260502210010 27 249 3.2 14.5 0.00 0.00 0.00 36 1015.8
20260502205010 26 49 4.8 16.1 0.00 0.00 0.00 37 1015.9
20260502204010 26 347 3.2 14.5 0.00 0.00 0.00 36 1015.8
20260502203010 26 358 6.4 12.9 0.00 0.00 0.00 36 1015.7
20260502201010 26 307 1.6 14.5 0.00 0.00 0.00 36 1015.8
20260502200011 26 89 1.6 22.5 0.00 0.00 0.00 36 1015.8
20260502195009 26 356 1.6 16.1 0.00 0.00 0.00 39 1015.9
20260502194010 26 223 0.0 12.9 0.00 0.00 0.00 40 1015.9
20260502191010 26 209 3.2 16.1 0.00 0.00 0.00 39 1016.0
20260502190009 25 170 3.2 14.5 0.00 0.00 0.00 40 1016.0
20260502185009 25 345 0.0 12.9 0.00 0.00 0.00 40 1016.0
20260502182010 26 188 0.0 9.7 0.00 0.00 0.00 40 1016.1
20260502163009 22 137 0.0 8.0 0.00 0.00 0.00 46 1015.8
20260502162011 21 155 0.0 8.0 0.00 0.00 0.00 49 1015.8
20260502161010 21 100 0.0 9.7 0.00 0.00 0.00 49 1015.7
20260502152009 17 92 0.0 0.0 0.00 0.00 0.00 69 1015.6
20260502151009 15 92 0.0 0.0 0.00 0.00 0.00 74 1015.6
20260502123009 11 216 0.0 4.8 0.00 0.00 0.00 98 1014.6
20260502122009 11 176 0.0 4.8 0.00 0.00 0.00 100 1014.6
20260502121009 11 164 1.6 8.0 0.00 0.00 0.00 100 1014.7
20260502114009 11 106 0.0 0.0 0.00 0.00 0.00 100 1014.9
20260502113009 11 106 0.0 0.0 0.00 0.00 0.00 100 1014.9
20260502112010 11 106 0.0 0.0 0.00 0.00 0.00 100 1015.0
20260502111009 11 106 0.0 0.0 0.00 0.00 0.00 100 1015.0
20260502110010 11 106 0.0 0.0 0.00 0.00 0.00 100 1015.0
20260502105010 11 106 0.0 0.0 0.00 0.00 0.00 100 1015.1
20260502104010 11 106 0.0 0.0 0.00 0.00 0.00 100 1015.2
20260502103010 11 106 0.0 0.0 0.00 0.00 0.00 100 1015.2
20260502102010 11 106 0.0 0.0 0.00 0.00 0.00 100 1015.2
20260502101010 11 106 0.0 0.0 0.00 0.00 0.00 100 1015.2
20260502091010 11 106 0.0 0.0 0.00 0.00 0.00 100 1015.6
20260502071010 12 106 0.0 0.0 0.00 0.00 0.00 100 1016.3
20260502070009 12 106 0.0 0.0 0.00 0.00 0.00 98 1016.3
20260502065009 12 106 0.0 0.0 0.00 0.00 0.00 97 1016.3
20260502064009 12 106 0.0 0.0 0.00 0.00 0.00 96 1016.3
20260502063009 12 106 0.0 0.0 0.00 0.00 0.00 95 1016.2
20260502060009 13 106 0.0 0.0 0.00 0.00 0.00 93 1016.3
20260502055010 13 106 0.0 0.0 0.00 0.00 0.00 93 1016.6
20260502054009 13 106 0.0 0.0 0.00 0.00 0.00 92 1016.4
20260502053010 13 106 0.0 8.0 0.00 0.00 0.00 92 1016.6
20260502052010 13 10 0.0 0.0 0.00 0.00 0.00 91 1016.4
20260502051010 14 10 0.0 0.0 0.00 0.00 0.00 90 1016.6
20260502045010 15 10 0.0 0.0 0.00 0.00 0.00 86 1016.6
20260502044009 15 10 0.0 0.0 0.00 0.00 0.00 84 1016.4
20260502043009 15 10 0.0 0.0 0.00 0.00 0.00 82 1016.4
20260502042010 16 10 0.0 0.0 0.00 0.00 0.00 79 1016.3
20260502040010 17 10 0.0 0.0 0.00 0.00 0.00 74 1016.2
20260502035009 17 10 0.0 0.0 0.00 0.00 0.00 73 1016.2
20260502034009 17 10 0.0 0.0 0.00 0.00 0.00 70 1016.1
20260502033010 18 10 0.0 0.0 0.00 0.00 0.00 68 1016.1
20260502032009 18 10 0.0 0.0 0.00 0.00 0.00 67 1016.0
20260502031010 19 10 0.0 0.0 0.00 0.00 0.00 65 1016.0
20260502025009 20 10 0.0 0.0 0.00 0.00 0.00 60 1015.9
20260502024010 20 10 0.0 0.0 0.00 0.00 0.00 59 1015.8
20260502023009 21 10 0.0 0.0 0.00 0.00 0.00 56 1015.8
20260502022009 21 10 0.0 0.0 0.00 0.00 0.00 54 1015.9
20260502021010 21 10 0.0 0.0 0.00 0.00 0.00 54 1015.9
20260502014010 22 10 0.0 0.0 0.00 0.00 0.00 48 1016.0
20260502013010 23 10 0.0 0.0 0.00 0.00 0.00 46 1016.1
20260502012010 23 10 0.0 0.0 0.00 0.00 0.00 46 1016.2
20260502011010 23 10 0.0 0.0 0.00 0.00 0.00 45 1016.2